This is the latest recevied weather packets stored in our database for station/object DL7AND-1. If no packets are shown the sender has not sent any weather packets the latest 10 day(s).
| Time | Temp. | Humidity | Pressure | Rain* | Wind** | Luminosity | Snow |
|---|---|---|---|---|---|---|---|
| 1778185920 | 11.11° C | - | 1008.1 hPa | 0 mm | - | - | - |
| 1778177804 | 11.67° C | - | 1006.7 hPa | 0 mm | - | - | - |
| 1778175405 | 11.67° C | - | 1006.6 hPa | 0 mm | - | - | - |
| 1778172718 | 11.67° C | - | 1006 hPa | 0 mm | - | - | - |
| 1778167005 | 11.67° C | - | 1005.7 hPa | 0 mm | - | - | - |
| 1778166428 | 11.67° C | - | 1005.6 hPa | 0 mm | - | - | - |
| 1778164653 | 11.67° C | - | 1005.4 hPa | 0 mm | - | - | - |
| 1778157118 | 10° C | - | 1004.9 hPa | 0 mm | - | - | - |
| 1778154718 | 9.44° C | - | 1005 hPa | 0 mm | - | - | - |
| 1778147519 | 9.44° C | - | 1003.9 hPa | 0 mm | - | - | - |
| 1778146028 | 9.44° C | - | 1003.7 hPa | 0 mm | - | - | - |
| 1778145452 | 9.44° C | - | 1003.6 hPa | 0 mm | - | - | - |
| 1778139659 | 8.89° C | - | 1002.7 hPa | 0 mm | - | - | - |
| 1778139118 | 8.33° C | - | 1002.8 hPa | 0 mm | - | - | - |
| 1778138225 | 8.33° C | - | 1002.5 hPa | 0 mm | - | - | - |
| 1778137052 | 8.33° C | - | 1002.4 hPa | 0 mm | - | - | - |
| 1778128604 | 8.33° C | - | 1001 hPa | 0 mm | - | - | - |
| 1778122605 | 8.33° C | - | 1000.3 hPa | 0 mm | - | - | - |
| 1778118738 | 8.33° C | - | 1000.2 hPa | 0 mm | - | - | - |
| 1778117805 | 8.33° C | - | 1000 hPa | 0 mm | - | - | - |
| 1778112093 | 8.33° C | - | 999.5 hPa | 0 mm | - | - | - |
| 1778107629 | 10.56° C | - | 999.3 hPa | 0 mm | - | - | - |
| 1778099515 | 11.67° C | - | 998.4 hPa | 0 mm | - | - | - |
| 1778096456 | 11.67° C | - | 998.4 hPa | 0 mm | - | - | - |
| 1778095916 | 11.67° C | - | 997.9 hPa | 0 mm | - | - | - |
* Rain latest hour (hover to see other rain measurements)
** Current wind speed in m/s (hover to see current wind gust speed)